Time,TemperatureF,DewpointF,PressureIn,WindDirection,WindDirectionDegrees,WindSpeedMPH,WindSpeedGustMPH,Humidity,HourlyPrecipIn,Conditions,Clouds,dailyrainin,SoftwareType,DateUTC
2013-05-31 00:01:00,71.7,68.6,30.12,South,177,0.0,1.0,90,0.00,,,0.00,Wunderground v.1.15,2013-05-31 04:01:00,
2013-05-31 00:05:00,71.7,68.6,30.12,South,177,0.0,1.0,90,0.00,,,0.00,Wunderground v.1.15,2013-05-31 04:05:00,
2013-05-31 00:06:00,71.7,68.6,30.12,South,177,0.0,1.0,90,0.00,,,0.00,Wunderground v.1.15,2013-05-31 04:06:00,
2013-05-31 00:07:00,71.7,68.6,30.12,South,177,0.0,1.0,90,0.00,,,0.00,Wunderground v.1.15,2013-05-31 04:07:00,
2013-05-31 00:11:00,71.7,68.6,30.12,South,177,0.0,1.0,90,0.00,,,0.00,Wunderground v.1.15,2013-05-31 04:11:00,
2013-05-31 00:16:00,71.7,68.6,30.12,South,177,0.0,1.0,90,0.00,,,0.00,Wunderground v.1.15,2013-05-31 04:16:00,
2013-05-31 00:22:00,71.8,68.4,30.12,South,177,0.0,1.0,89,0.00,,,0.00,Wunderground v.1.15,2013-05-31 04:22:00,
2013-05-31 00:28:00,71.8,68.4,30.12,South,177,0.0,1.0,89,0.00,,,0.00,Wunderground v.1.15,2013-05-31 04:28:00,
2013-05-31 00:33:00,71.9,68.5,30.12,South,177,0.0,1.0,89,0.00,,,0.00,Wunderground v.1.15,2013-05-31 04:33:00,
2013-05-31 00:39:00,71.9,68.5,30.12,South,177,0.0,1.0,89,0.00,,,0.00,Wunderground v.1.15,2013-05-31 04:39:00,
2013-05-31 00:45:00,71.9,68.5,30.12,South,177,0.0,1.0,89,0.00,,,0.00,Wunderground v.1.15,2013-05-31 04:45:00,
2013-05-31 00:51:00,71.9,68.2,30.11,South,177,0.0,1.0,88,0.00,,,0.00,Wunderground v.1.15,2013-05-31 04:51:00,
2013-05-31 00:57:00,71.9,68.2,30.11,South,177,0.0,1.0,88,0.00,,,0.00,Wunderground v.1.15,2013-05-31 04:57:00,
2013-05-31 01:02:00,71.9,68.2,30.12,South,177,0.0,1.0,88,0.00,,,0.00,Wunderground v.1.15,2013-05-31 05:02:00,
2013-05-31 01:08:00,72.0,68.2,30.11,South,177,0.0,1.0,88,0.00,,,0.00,Wunderground v.1.15,2013-05-31 05:08:00,
2013-05-31 01:14:00,72.1,68.0,30.11,South,177,0.0,1.0,87,0.00,,,0.00,Wunderground v.1.15,2013-05-31 05:14:00,
2013-05-31 01:19:00,72.1,68.0,30.11,South,177,0.0,1.0,87,0.00,,,0.00,Wunderground v.1.15,2013-05-31 05:19:00,
2013-05-31 01:25:00,72.1,68.0,30.11,South,177,0.0,1.0,87,0.00,,,0.00,Wunderground v.1.15,2013-05-31 05:25:00,
2013-05-31 01:31:00,72.1,68.0,30.11,South,177,0.0,1.0,87,0.00,,,0.00,Wunderground v.1.15,2013-05-31 05:31:00,
2013-05-31 01:37:00,72.1,68.0,30.11,South,177,0.0,1.0,87,0.00,,,0.00,Wunderground v.1.15,2013-05-31 05:37:00,
2013-05-31 01:43:00,72.1,68.0,30.11,South,177,0.0,1.0,87,0.00,,,0.00,Wunderground v.1.15,2013-05-31 05:43:00,
2013-05-31 01:49:00,72.1,68.0,30.11,South,177,0.0,1.0,87,0.00,,,0.00,Wunderground v.1.15,2013-05-31 05:49:00,
2013-05-31 01:55:00,72.1,67.7,30.11,South,177,0.0,1.0,86,0.00,,,0.00,Wunderground v.1.15,2013-05-31 05:55:00,
2013-05-31 02:01:00,72.1,67.7,30.11,South,177,0.0,1.0,86,0.00,,,0.00,Wunderground v.1.15,2013-05-31 06:01:00,
2013-05-31 02:06:00,72.1,67.7,30.11,South,177,0.0,1.0,86,0.00,,,0.00,Wunderground v.1.15,2013-05-31 06:06:00,
2013-05-31 02:12:00,72.1,67.7,30.11,South,177,0.0,0.0,86,0.00,,,0.00,Wunderground v.1.15,2013-05-31 06:12:00,
2013-05-31 02:18:00,72.0,67.6,30.11,South,177,0.0,0.0,86,0.00,,,0.00,Wunderground v.1.15,2013-05-31 06:18:00,
2013-05-31 02:24:00,72.0,67.6,30.11,South,177,0.0,0.0,86,0.00,,,0.00,Wunderground v.1.15,2013-05-31 06:24:00,
2013-05-31 02:30:00,71.8,67.4,30.11,South,177,0.0,0.0,86,0.00,,,0.00,Wunderground v.1.15,2013-05-31 06:30:00,
2013-05-31 02:36:00,71.7,67.3,30.11,South,177,0.0,0.0,86,0.00,,,0.00,Wunderground v.1.15,2013-05-31 06:36:00,
2013-05-31 02:42:00,71.6,67.2,30.11,South,177,0.0,0.0,86,0.00,,,0.00,Wunderground v.1.15,2013-05-31 06:42:00,
2013-05-31 02:47:00,71.4,67.0,30.11,South,177,0.0,0.0,86,0.00,,,0.00,Wunderground v.1.15,2013-05-31 06:47:00,
2013-05-31 02:53:00,71.3,66.9,30.11,South,177,0.0,0.0,86,0.00,,,0.00,Wunderground v.1.15,2013-05-31 06:53:00,
2013-05-31 02:59:00,71.1,67.0,30.11,South,177,0.0,0.0,87,0.00,,,0.00,Wunderground v.1.15,2013-05-31 06:59:00,
2013-05-31 03:05:00,71.0,66.9,30.11,South,177,0.0,0.0,87,0.00,,,0.00,Wunderground v.1.15,2013-05-31 07:05:00,
2013-05-31 03:11:00,70.8,66.7,30.11,South,177,0.0,0.0,87,0.00,,,0.00,Wunderground v.1.15,2013-05-31 07:11:00,
2013-05-31 03:17:00,70.7,66.6,30.11,South,177,0.0,0.0,87,0.00,,,0.00,Wunderground v.1.15,2013-05-31 07:17:00,
2013-05-31 03:23:00,70.5,66.8,30.11,South,177,0.0,0.0,88,0.00,,,0.00,Wunderground v.1.15,2013-05-31 07:23:00,
2013-05-31 03:29:00,70.3,66.6,30.11,South,177,0.0,0.0,88,0.00,,,0.00,Wunderground v.1.15,2013-05-31 07:29:00,
2013-05-31 03:35:00,70.2,66.5,30.11,South,177,0.0,0.0,88,0.00,,,0.00,Wunderground v.1.15,2013-05-31 07:35:00,
2013-05-31 03:40:00,70.0,66.3,30.11,South,177,0.0,0.0,88,0.00,,,0.00,Wunderground v.1.15,2013-05-31 07:40:00,
2013-05-31 03:46:00,69.9,66.5,30.11,South,177,0.0,0.0,89,0.00,,,0.00,Wunderground v.1.15,2013-05-31 07:46:00,
2013-05-31 03:52:00,69.7,66.3,30.12,South,177,0.0,0.0,89,0.00,,,0.00,Wunderground v.1.15,2013-05-31 07:52:00,
2013-05-31 03:58:00,69.7,66.3,30.12,South,177,0.0,0.0,89,0.00,,,0.00,Wunderground v.1.15,2013-05-31 07:58:00,
2013-05-31 04:04:00,69.6,66.2,30.12,South,177,0.0,0.0,89,0.00,,,0.00,Wunderground v.1.15,2013-05-31 08:04:00,
2013-05-31 04:10:00,69.6,66.2,30.12,South,177,0.0,0.0,89,0.00,,,0.00,Wunderground v.1.15,2013-05-31 08:10:00,
2013-05-31 04:16:00,69.6,66.2,30.12,South,177,0.0,0.0,89,0.00,,,0.00,Wunderground v.1.15,2013-05-31 08:16:00,
2013-05-31 04:22:00,69.5,66.1,30.12,South,177,0.0,0.0,89,0.00,,,0.00,Wunderground v.1.15,2013-05-31 08:22:00,
2013-05-31 04:27:00,69.4,66.0,30.12,South,177,0.0,0.0,89,0.00,,,0.00,Wunderground v.1.15,2013-05-31 08:27:00,
2013-05-31 04:33:00,69.4,66.0,30.12,South,177,0.0,0.0,89,0.00,,,0.00,Wunderground v.1.15,2013-05-31 08:33:00,
2013-05-31 04:40:00,69.3,65.9,30.12,South,177,0.0,0.0,89,0.00,,,0.00,Wunderground v.1.15,2013-05-31 08:40:00,
2013-05-31 04:46:00,69.2,65.8,30.12,South,177,0.0,0.0,89,0.00,,,0.00,Wunderground v.1.15,2013-05-31 08:46:00,
2013-05-31 04:51:00,69.0,65.6,30.12,South,177,0.0,0.0,89,0.00,,,0.00,Wunderground v.1.15,2013-05-31 08:51:00,
2013-05-31 04:57:00,68.8,65.4,30.12,South,177,0.0,0.0,89,0.00,,,0.00,Wunderground v.1.15,2013-05-31 08:57:00,
2013-05-31 05:03:00,68.6,65.2,30.12,South,177,0.0,0.0,89,0.00,,,0.00,Wunderground v.1.15,2013-05-31 09:03:00,
2013-05-31 05:09:00,68.5,65.1,30.12,South,177,0.0,1.0,89,0.00,,,0.00,Wunderground v.1.15,2013-05-31 09:09:00,
2013-05-31 05:15:00,68.3,65.3,30.12,South,177,0.0,0.0,90,0.00,,,0.00,Wunderground v.1.15,2013-05-31 09:15:00,
2013-05-31 05:20:00,68.3,65.3,30.12,South,177,0.0,0.0,90,0.00,,,0.00,Wunderground v.1.15,2013-05-31 09:20:00,
2013-05-31 05:26:00,68.2,65.2,30.12,South,177,0.0,0.0,90,0.00,,,0.00,Wunderground v.1.15,2013-05-31 09:26:00,
2013-05-31 05:32:00,68.1,65.1,30.12,South,177,0.0,0.0,90,0.00,,,0.00,Wunderground v.1.15,2013-05-31 09:32:00,
2013-05-31 05:38:00,68.1,65.1,30.12,South,177,0.0,1.0,90,0.00,,,0.00,Wunderground v.1.15,2013-05-31 09:38:00,
2013-05-31 05:44:00,68.0,65.0,30.13,South,177,0.0,0.0,90,0.00,,,0.00,Wunderground v.1.15,2013-05-31 09:44:00,
2013-05-31 05:50:00,67.9,64.9,30.13,South,177,0.0,0.0,90,0.00,,,0.00,Wunderground v.1.15,2013-05-31 09:50:00,
2013-05-31 05:56:00,67.9,64.9,30.13,South,177,0.0,0.0,90,0.00,,,0.00,Wunderground v.1.15,2013-05-31 09:56:00,
2013-05-31 06:01:00,67.9,64.9,30.13,South,177,0.0,0.0,90,0.00,,,0.00,Wunderground v.1.15,2013-05-31 10:01:00,
2013-05-31 06:06:00,67.9,64.9,30.13,South,177,0.0,0.0,90,0.00,,,0.00,Wunderground v.1.15,2013-05-31 10:06:00,
2013-05-31 06:12:00,67.9,64.9,30.13,South,177,0.0,0.0,90,0.00,,,0.00,Wunderground v.1.15,2013-05-31 10:12:00,
2013-05-31 06:18:00,68.0,65.3,30.13,South,177,0.0,0.0,91,0.00,,,0.00,Wunderground v.1.15,2013-05-31 10:18:00,
2013-05-31 06:24:00,68.2,65.5,30.13,South,177,0.0,0.0,91,0.00,,,0.00,Wunderground v.1.15,2013-05-31 10:24:00,
2013-05-31 06:30:00,68.4,66.0,30.13,South,177,0.0,0.0,92,0.00,,,0.00,Wunderground v.1.15,2013-05-31 10:30:00,
2013-05-31 06:36:00,68.7,66.0,30.14,South,177,0.0,0.0,91,0.00,,,0.00,Wunderground v.1.15,2013-05-31 10:36:00,
2013-05-31 06:42:00,69.0,66.3,30.13,South,177,0.0,0.0,91,0.00,,,0.00,Wunderground v.1.15,2013-05-31 10:42:00,
2013-05-31 06:47:00,69.4,66.7,30.14,South,177,0.0,1.0,91,0.00,,,0.00,Wunderground v.1.15,2013-05-31 10:47:00,
2013-05-31 06:53:00,69.7,67.0,30.14,South,177,0.0,1.0,91,0.00,,,0.00,Wunderground v.1.15,2013-05-31 10:53:00,
2013-05-31 06:59:00,70.2,67.1,30.14,South,177,0.0,1.0,90,0.00,,,0.00,Wunderground v.1.15,2013-05-31 10:59:00,
2013-05-31 07:05:00,70.6,67.5,30.14,South,177,0.0,1.0,90,0.00,,,0.00,Wunderground v.1.15,2013-05-31 11:05:00,
2013-05-31 07:10:00,71.1,67.7,30.14,South,177,0.0,0.0,89,0.00,,,0.00,Wunderground v.1.15,2013-05-31 11:10:00,
2013-05-31 07:16:00,71.5,67.8,30.14,South,177,0.0,0.0,88,0.00,,,0.00,Wunderground v.1.15,2013-05-31 11:16:00,
2013-05-31 07:22:00,72.0,67.9,30.14,South,177,0.0,0.0,87,0.00,,,0.00,Wunderground v.1.15,2013-05-31 11:22:00,
2013-05-31 07:28:00,72.5,68.1,30.14,South,177,0.0,2.0,86,0.00,,,0.00,Wunderground v.1.15,2013-05-31 11:28:00,
2013-05-31 07:34:00,73.2,68.4,30.14,South,177,1.0,2.0,85,0.00,,,0.00,Wunderground v.1.15,2013-05-31 11:34:00,
2013-05-31 07:40:00,73.7,67.9,30.14,South,177,0.0,0.0,82,0.00,,,0.00,Wunderground v.1.15,2013-05-31 11:40:00,
2013-05-31 07:46:00,74.2,68.0,30.14,South,177,1.0,1.0,81,0.00,,,0.00,Wunderground v.1.15,2013-05-31 11:46:00,
2013-05-31 07:51:00,74.6,68.0,30.14,South,177,0.0,1.0,80,0.00,,,0.00,Wunderground v.1.15,2013-05-31 11:51:00,
2013-05-31 07:57:00,75.2,68.2,30.15,South,174,1.0,2.0,79,0.00,,,0.00,Wunderground v.1.15,2013-05-31 11:57:00,
2013-05-31 08:03:00,75.6,68.3,30.14,South,174,1.0,1.0,78,0.00,,,0.00,Wunderground v.1.15,2013-05-31 12:03:00,
2013-05-31 08:10:00,76.0,68.3,30.14,South,171,0.0,1.0,77,0.00,,,0.00,Wunderground v.1.15,2013-05-31 12:10:00,
2013-05-31 08:16:00,76.4,68.3,30.14,SSW,203,1.0,1.0,76,0.00,,,0.00,Wunderground v.1.15,2013-05-31 12:16:00,
2013-05-31 08:22:00,76.6,68.1,30.14,SSW,207,1.0,1.0,75,0.00,,,0.00,Wunderground v.1.15,2013-05-31 12:22:00,
2013-05-31 08:28:00,77.0,68.5,30.14,SSW,207,1.0,1.0,75,0.00,,,0.00,Wunderground v.1.15,2013-05-31 12:28:00,
2013-05-31 08:34:00,77.6,68.7,30.14,SSW,207,1.0,3.0,74,0.00,,,0.00,Wunderground v.1.15,2013-05-31 12:34:00,
2013-05-31 08:40:00,78.4,68.6,30.14,SSE,154,1.0,1.0,72,0.00,,,0.00,Wunderground v.1.15,2013-05-31 12:40:00,
2013-05-31 08:46:00,79.5,70.1,30.14,SSE,154,1.0,1.0,73,0.00,,,0.00,Wunderground v.1.15,2013-05-31 12:46:00,
2013-05-31 08:51:00,80.0,69.7,30.14,South,184,1.0,4.0,71,0.00,,,0.00,Wunderground v.1.15,2013-05-31 12:51:00,
2013-05-31 08:57:00,80.2,69.9,30.14,SSE,163,2.0,4.0,71,0.00,,,0.00,Wunderground v.1.15,2013-05-31 12:57:00,
2013-05-31 09:02:00,80.4,69.7,30.14,South,179,2.0,3.0,70,0.00,,,0.00,Wunderground v.1.15,2013-05-31 13:02:00,
2013-05-31 09:08:00,80.6,70.3,30.14,SE,142,2.0,5.0,71,0.00,,,0.00,Wunderground v.1.15,2013-05-31 13:08:00,
2013-05-31 09:14:00,80.6,70.3,30.14,SE,140,2.0,3.0,71,0.00,,,0.00,Wunderground v.1.15,2013-05-31 13:14:00,
2013-05-31 09:20:00,80.4,70.5,30.14,SSE,148,3.0,3.0,72,0.00,,,0.00,Wunderground v.1.15,2013-05-31 13:20:00,
2013-05-31 09:26:00,80.2,70.8,30.13,SSE,149,2.0,3.0,73,0.00,,,0.00,Wunderground v.1.15,2013-05-31 13:26:00,
2013-05-31 09:31:00,80.2,70.4,30.13,SSE,153,2.0,3.0,72,0.00,,,0.00,Wunderground v.1.15,2013-05-31 13:31:00,
2013-05-31 09:37:00,80.2,69.9,30.13,SSW,203,2.0,3.0,71,0.00,,,0.00,Wunderground v.1.15,2013-05-31 13:37:00,
2013-05-31 09:43:00,80.4,70.1,30.13,SSE,155,3.0,3.0,71,0.00,,,0.00,Wunderground v.1.15,2013-05-31 13:43:00,
2013-05-31 09:49:00,81.0,70.7,30.13,SSE,159,2.0,3.0,71,0.00,,,0.00,Wunderground v.1.15,2013-05-31 13:49:00,
2013-05-31 09:55:00,81.5,71.2,30.13,South,172,2.0,3.0,71,0.00,,,0.00,Wunderground v.1.15,2013-05-31 13:55:00,
2013-05-31 10:01:00,81.5,70.3,30.13,SSE,166,2.0,3.0,69,0.00,,,0.00,Wunderground v.1.15,2013-05-31 14:01:00,
2013-05-31 10:07:00,81.2,70.5,30.12,SSE,166,3.0,7.0,70,0.00,,,0.00,Wunderground v.1.15,2013-05-31 14:07:00,
2013-05-31 10:12:00,80.9,71.0,30.13,SSE,157,3.0,7.0,72,0.00,,,0.00,Wunderground v.1.15,2013-05-31 14:12:00,
2013-05-31 10:19:00,80.8,70.5,30.12,SSW,203,3.0,7.0,71,0.00,,,0.00,Wunderground v.1.15,2013-05-31 14:19:00,
2013-05-31 10:25:00,80.7,70.8,30.12,SSW,193,3.0,7.0,72,0.00,,,0.00,Wunderground v.1.15,2013-05-31 14:25:00,
2013-05-31 10:30:00,81.0,70.7,30.13,SSE,159,3.0,6.0,71,0.00,,,0.00,Wunderground v.1.15,2013-05-31 14:30:00,
2013-05-31 10:36:00,81.1,70.4,30.12,SSE,155,3.0,7.0,70,0.00,,,0.00,Wunderground v.1.15,2013-05-31 14:36:00,
2013-05-31 10:42:00,80.7,70.4,30.13,SSW,198,3.0,7.0,71,0.00,,,0.00,Wunderground v.1.15,2013-05-31 14:42:00,
2013-05-31 10:48:00,80.7,70.8,30.13,SSE,156,4.0,7.0,72,0.00,,,0.00,Wunderground v.1.15,2013-05-31 14:48:00,
2013-05-31 10:54:00,80.8,70.9,30.13,South,180,4.0,7.0,72,0.00,,,0.00,Wunderground v.1.15,2013-05-31 14:54:00,
2013-05-31 11:00:00,81.0,70.7,30.13,SSW,193,3.0,7.0,71,0.00,,,0.00,Wunderground v.1.15,2013-05-31 15:00:00,
2013-05-31 11:06:00,80.9,70.6,30.13,South,180,4.0,8.0,71,0.00,,,0.00,Wunderground v.1.15,2013-05-31 15:06:00,
2013-05-31 11:12:00,81.2,71.3,30.13,South,170,4.0,7.0,72,0.00,,,0.00,Wunderground v.1.15,2013-05-31 15:12:00,
2013-05-31 11:17:00,81.4,71.1,30.12,SE,143,4.0,7.0,71,0.00,,,0.00,Wunderground v.1.15,2013-05-31 15:17:00,
2013-05-31 11:23:00,81.6,70.9,30.13,SSW,193,4.0,7.0,70,0.00,,,0.00,Wunderground v.1.15,2013-05-31 15:23:00,
2013-05-31 11:29:00,81.7,71.0,30.12,South,170,4.0,7.0,70,0.00,,,0.00,Wunderground v.1.15,2013-05-31 15:29:00,
2013-05-31 11:35:00,81.8,71.1,30.12,SSW,203,4.0,9.0,70,0.00,,,0.00,Wunderground v.1.15,2013-05-31 15:35:00,
2013-05-31 11:41:00,82.3,72.0,30.12,SSW,198,3.0,5.0,71,0.00,,,0.00,Wunderground v.1.15,2013-05-31 15:41:00,
2013-05-31 11:47:00,82.8,72.0,30.12,SSW,209,3.0,7.0,70,0.00,,,0.00,Wunderground v.1.15,2013-05-31 15:47:00,
2013-05-31 11:53:00,83.6,72.3,30.12,SSE,151,2.0,7.0,69,0.00,,,0.00,Wunderground v.1.15,2013-05-31 15:53:00,
2013-05-31 11:59:00,83.9,72.6,30.12,SSE,149,2.0,7.0,69,0.00,,,0.00,Wunderground v.1.15,2013-05-31 15:59:00,
2013-05-31 12:05:00,84.1,72.8,30.12,South,186,2.0,7.0,69,0.00,,,0.00,Wunderground v.1.15,2013-05-31 16:05:00,
2013-05-31 12:11:00,84.4,72.7,30.12,South,188,3.0,4.0,68,0.00,,,0.00,Wunderground v.1.15,2013-05-31 16:11:00,
2013-05-31 12:16:00,84.6,72.0,30.11,SSE,159,3.0,6.0,66,0.00,,,0.00,Wunderground v.1.15,2013-05-31 16:16:00,
2013-05-31 12:22:00,84.3,71.7,30.11,SSW,198,4.0,4.0,66,0.00,,,0.00,Wunderground v.1.15,2013-05-31 16:22:00,
2013-05-31 12:28:00,84.1,71.5,30.11,SE,144,4.0,5.0,66,0.00,,,0.00,Wunderground v.1.15,2013-05-31 16:28:00,
2013-05-31 12:34:00,84.0,71.4,30.11,South,180,4.0,6.0,66,0.00,,,0.00,Wunderground v.1.15,2013-05-31 16:34:00,
2013-05-31 12:40:00,83.8,71.7,30.11,South,188,4.0,4.0,67,0.00,,,0.00,Wunderground v.1.15,2013-05-31 16:40:00,
2013-05-31 12:46:00,83.7,71.6,30.10,South,176,4.0,6.0,67,0.00,,,0.00,Wunderground v.1.15,2013-05-31 16:46:00,
2013-05-31 12:52:00,84.1,71.5,30.10,South,171,4.0,4.0,66,0.00,,,0.00,Wunderground v.1.15,2013-05-31 16:52:00,
2013-05-31 12:57:00,84.4,72.2,30.10,SSE,164,4.0,5.0,67,0.00,,,0.00,Wunderground v.1.15,2013-05-31 16:57:00,
2013-05-31 13:03:00,85.0,71.9,30.10,South,178,3.0,5.0,65,0.00,,,0.00,Wunderground v.1.15,2013-05-31 17:03:00,
2013-05-31 13:09:00,84.9,71.4,30.10,SSE,150,4.0,4.0,64,0.00,,,0.00,Wunderground v.1.15,2013-05-31 17:09:00,
2013-05-31 13:14:00,85.3,72.2,30.10,SE,138,4.0,5.0,65,0.00,,,0.00,Wunderground v.1.15,2013-05-31 17:14:00,
2013-05-31 13:20:00,85.6,72.0,30.10,South,189,4.0,5.0,64,0.00,,,0.00,Wunderground v.1.15,2013-05-31 17:20:00,
2013-05-31 13:26:00,85.6,72.5,30.10,SSE,163,4.0,5.0,65,0.00,,,0.00,Wunderground v.1.15,2013-05-31 17:26:00,
2013-05-31 13:32:00,85.0,72.4,30.10,SE,124,4.0,4.0,66,0.00,,,0.00,Wunderground v.1.15,2013-05-31 17:32:00,
2013-05-31 13:38:00,84.6,71.5,30.09,South,171,5.0,6.0,65,0.00,,,0.00,Wunderground v.1.15,2013-05-31 17:38:00,
2013-05-31 13:43:00,84.7,73.0,30.09,SSE,149,4.0,5.0,68,0.00,,,0.00,Wunderground v.1.15,2013-05-31 17:43:00,
2013-05-31 13:49:00,84.8,72.2,30.09,SSE,168,3.0,4.0,66,0.00,,,0.00,Wunderground v.1.15,2013-05-31 17:49:00,
2013-05-31 13:55:00,84.8,73.1,30.09,ESE,118,4.0,5.0,68,0.00,,,0.00,Wunderground v.1.15,2013-05-31 17:55:00,
2013-05-31 14:01:00,85.1,72.5,30.08,SSW,203,3.0,9.0,66,0.00,,,0.00,Wunderground v.1.15,2013-05-31 18:01:00,
2013-05-31 14:07:00,84.7,72.1,30.08,South,186,4.0,9.0,66,0.00,,,0.00,Wunderground v.1.15,2013-05-31 18:07:00,
2013-05-31 14:13:00,84.8,71.7,30.08,South,172,4.0,9.0,65,0.00,,,0.00,Wunderground v.1.15,2013-05-31 18:13:00,
2013-05-31 14:18:00,84.9,71.8,30.08,South,178,4.0,9.0,65,0.00,,,0.00,Wunderground v.1.15,2013-05-31 18:18:00,
2013-05-31 14:24:00,85.4,72.7,30.08,SSE,168,3.0,9.0,66,0.00,,,0.00,Wunderground v.1.15,2013-05-31 18:24:00,
2013-05-31 14:30:00,86.2,72.6,30.08,South,182,2.0,2.0,64,0.00,,,0.00,Wunderground v.1.15,2013-05-31 18:30:00,
2013-05-31 14:36:00,86.1,72.0,30.08,SSW,193,3.0,9.0,63,0.00,,,0.00,Wunderground v.1.15,2013-05-31 18:36:00,
2013-05-31 14:42:00,85.7,72.1,30.07,South,183,4.0,9.0,64,0.00,,,0.00,Wunderground v.1.15,2013-05-31 18:42:00,
2013-05-31 14:47:00,85.4,72.3,30.07,SSE,166,4.0,9.0,65,0.00,,,0.00,Wunderground v.1.15,2013-05-31 18:47:00,
2013-05-31 14:53:00,85.0,72.4,30.07,South,177,4.0,9.0,66,0.00,,,0.00,Wunderground v.1.15,2013-05-31 18:53:00,
2013-05-31 14:59:00,85.0,72.8,30.07,South,179,3.0,9.0,67,0.00,,,0.00,Wunderground v.1.15,2013-05-31 18:59:00,
2013-05-31 15:05:00,84.8,72.6,30.07,South,181,4.0,9.0,67,0.00,,,0.00,Wunderground v.1.15,2013-05-31 19:05:00,
2013-05-31 15:11:00,84.7,73.0,30.07,SSE,151,4.0,9.0,68,0.00,,,0.00,Wunderground v.1.15,2013-05-31 19:11:00,
2013-05-31 15:17:00,84.3,72.1,30.07,ESE,119,4.0,9.0,67,0.00,,,0.00,Wunderground v.1.15,2013-05-31 19:17:00,
2013-05-31 15:23:00,83.9,72.6,30.06,SSE,153,4.0,9.0,69,0.00,,,0.00,Wunderground v.1.15,2013-05-31 19:23:00,
2013-05-31 15:28:00,83.2,72.4,30.06,SSW,193,5.0,10.0,70,0.00,,,0.00,Wunderground v.1.15,2013-05-31 19:28:00,
2013-05-31 15:34:00,82.7,71.9,30.06,SW,229,5.0,9.0,70,0.00,,,0.00,Wunderground v.1.15,2013-05-31 19:34:00,
2013-05-31 15:40:00,82.2,71.9,30.06,SSE,167,5.0,9.0,71,0.00,,,0.00,Wunderground v.1.15,2013-05-31 19:40:00,
2013-05-31 15:46:00,81.8,72.3,30.06,SSE,160,4.0,9.0,73,0.00,,,0.00,Wunderground v.1.15,2013-05-31 19:46:00,
2013-05-31 15:52:00,81.9,72.0,30.06,South,180,3.0,9.0,72,0.00,,,0.00,Wunderground v.1.15,2013-05-31 19:52:00,
2013-05-31 15:58:00,81.8,71.9,30.06,SW,226,4.0,9.0,72,0.00,,,0.00,Wunderground v.1.15,2013-05-31 19:58:00,
2013-05-31 16:04:00,81.3,71.8,30.06,SSW,198,6.0,11.0,73,0.00,,,0.00,Wunderground v.1.15,2013-05-31 20:04:00,
2013-05-31 16:10:00,81.2,72.5,30.05,SSW,193,5.0,5.0,75,0.00,,,0.00,Wunderground v.1.15,2013-05-31 20:10:00,
2013-05-31 16:16:00,80.9,71.8,30.05,SE,142,5.0,11.0,74,0.00,,,0.00,Wunderground v.1.15,2013-05-31 20:16:00,
2013-05-31 16:22:00,80.8,72.5,30.05,East,99,4.0,11.0,76,0.00,,,0.00,Wunderground v.1.15,2013-05-31 20:22:00,
2013-05-31 16:27:00,81.0,72.3,30.05,SSW,193,3.0,11.0,75,0.00,,,0.00,Wunderground v.1.15,2013-05-31 20:27:00,
2013-05-31 16:33:00,81.1,72.4,30.04,SSW,193,4.0,11.0,75,0.00,,,0.00,Wunderground v.1.15,2013-05-31 20:33:00,
2013-05-31 16:39:00,81.0,72.3,30.04,South,178,4.0,12.0,75,0.00,,,0.00,Wunderground v.1.15,2013-05-31 20:39:00,
2013-05-31 16:45:00,80.8,72.5,30.04,South,172,4.0,11.0,76,0.00,,,0.00,Wunderground v.1.15,2013-05-31 20:45:00,
2013-05-31 16:51:00,80.7,72.4,30.04,South,178,4.0,11.0,76,0.00,,,0.00,Wunderground v.1.15,2013-05-31 20:51:00,
2013-05-31 16:57:00,80.6,72.3,30.04,SSW,193,5.0,11.0,76,0.00,,,0.00,Wunderground v.1.15,2013-05-31 20:57:00,
2013-05-31 17:03:00,80.5,72.6,30.03,South,176,5.0,7.0,77,0.00,,,0.00,Wunderground v.1.15,2013-05-31 21:03:00,
2013-05-31 17:09:00,80.3,72.4,30.03,South,187,5.0,7.0,77,0.00,,,0.00,Wunderground v.1.15,2013-05-31 21:09:00,
2013-05-31 17:14:00,80.0,72.5,30.03,SSW,198,5.0,7.0,78,0.00,,,0.00,Wunderground v.1.15,2013-05-31 21:14:00,
2013-05-31 17:20:00,79.7,72.2,30.03,South,182,5.0,7.0,78,0.00,,,0.00,Wunderground v.1.15,2013-05-31 21:20:00,
2013-05-31 17:26:00,79.4,72.3,30.03,South,186,5.0,7.0,79,0.00,,,0.00,Wunderground v.1.15,2013-05-31 21:26:00,
2013-05-31 17:32:00,79.2,72.1,30.03,WSW,238,4.0,7.0,79,0.00,,,0.00,Wunderground v.1.15,2013-05-31 21:32:00,
2013-05-31 17:38:00,79.0,72.3,30.03,SW,214,5.0,7.0,80,0.00,,,0.00,Wunderground v.1.15,2013-05-31 21:38:00,
2013-05-31 17:44:00,78.8,72.1,30.03,South,182,5.0,7.0,80,0.00,,,0.00,Wunderground v.1.15,2013-05-31 21:44:00,
2013-05-31 17:50:00,78.6,71.9,30.02,SW,228,4.0,4.0,80,0.00,,,0.00,Wunderground v.1.15,2013-05-31 21:50:00,
2013-05-31 17:56:00,78.5,71.8,30.02,SSW,193,4.0,7.0,80,0.00,,,0.00,Wunderground v.1.15,2013-05-31 21:56:00,
2013-05-31 18:01:00,78.5,71.8,30.02,South,180,3.0,9.0,80,0.00,,,0.00,Wunderground v.1.15,2013-05-31 22:01:00,
2013-05-31 18:06:00,78.2,71.5,30.02,SSW,203,5.0,11.0,80,0.00,,,0.00,Wunderground v.1.15,2013-05-31 22:06:00,
2013-05-31 18:12:00,78.2,71.5,30.02,South,176,4.0,7.0,80,0.00,,,0.00,Wunderground v.1.15,2013-05-31 22:12:00,
2013-05-31 18:18:00,78.0,71.7,30.02,South,186,3.0,7.0,81,0.00,,,0.00,Wunderground v.1.15,2013-05-31 22:18:00,
2013-05-31 18:24:00,77.9,71.6,30.02,SSE,154,4.0,8.0,81,0.00,,,0.00,Wunderground v.1.15,2013-05-31 22:24:00,
2013-05-31 18:30:00,77.7,71.4,30.02,South,182,4.0,7.0,81,0.00,,,0.00,Wunderground v.1.15,2013-05-31 22:30:00,
2013-05-31 18:36:00,77.6,71.3,30.02,SE,133,4.0,8.0,81,0.00,,,0.00,Wunderground v.1.15,2013-05-31 22:36:00,
2013-05-31 18:42:00,77.5,71.2,30.02,South,186,4.0,7.0,81,0.00,,,0.00,Wunderground v.1.15,2013-05-31 22:42:00,
2013-05-31 18:48:00,77.4,71.1,30.02,South,173,4.0,7.0,81,0.00,,,0.00,Wunderground v.1.15,2013-05-31 22:48:00,
2013-05-31 18:53:00,77.3,71.0,30.02,SSE,151,4.0,7.0,81,0.00,,,0.00,Wunderground v.1.15,2013-05-31 22:53:00,
2013-05-31 18:59:00,77.2,70.9,30.02,SSW,193,4.0,4.0,81,0.00,,,0.00,Wunderground v.1.15,2013-05-31 22:59:00,
2013-05-31 19:05:00,77.1,71.2,30.02,South,173,4.0,7.0,82,0.00,,,0.00,Wunderground v.1.15,2013-05-31 23:05:00,
2013-05-31 19:11:00,76.9,71.0,30.02,South,184,3.0,6.0,82,0.00,,,0.00,Wunderground v.1.15,2013-05-31 23:11:00,
2013-05-31 19:17:00,76.8,70.9,30.02,South,178,3.0,6.0,82,0.00,,,0.00,Wunderground v.1.15,2013-05-31 23:17:00,
2013-05-31 19:23:00,76.6,70.7,30.02,South,181,3.0,6.0,82,0.00,,,0.00,Wunderground v.1.15,2013-05-31 23:23:00,
2013-05-31 19:29:00,76.4,70.5,30.02,SW,219,3.0,6.0,82,0.00,,,0.00,Wunderground v.1.15,2013-05-31 23:29:00,
2013-05-31 19:34:00,76.2,70.7,30.02,SW,232,3.0,6.0,83,0.00,,,0.00,Wunderground v.1.15,2013-05-31 23:34:00,
2013-05-31 19:39:00,76.0,70.5,30.02,South,186,4.0,4.0,83,0.00,,,0.00,Wunderground v.1.15,2013-05-31 23:39:00,
2013-05-31 19:45:00,75.9,70.4,30.02,South,188,3.0,8.0,83,0.00,,,0.00,Wunderground v.1.15,2013-05-31 23:45:00,
2013-05-31 19:51:00,75.8,70.3,30.02,WSW,241,3.0,6.0,83,0.00,,,0.00,Wunderground v.1.15,2013-05-31 23:51:00,
2013-05-31 19:57:00,75.7,70.2,30.02,South,176,3.0,7.0,83,0.00,,,0.00,Wunderground v.1.15,2013-05-31 23:57:00,
2013-05-31 20:03:00,75.7,70.2,30.02,South,187,3.0,5.0,83,0.00,,,0.00,Wunderground v.1.15,2013-06-01 00:03:00,
2013-05-31 20:09:00,75.7,70.2,30.02,South,183,4.0,8.0,83,0.00,,,0.00,Wunderground v.1.15,2013-06-01 00:09:00,
2013-05-31 20:15:00,75.7,70.2,30.02,WSW,246,3.0,5.0,83,0.00,,,0.00,Wunderground v.1.15,2013-06-01 00:15:00,
2013-05-31 20:21:00,75.6,70.1,30.02,South,174,3.0,5.0,83,0.00,,,0.00,Wunderground v.1.15,2013-06-01 00:21:00,
2013-05-31 20:27:00,75.5,70.3,30.02,SSE,164,3.0,5.0,84,0.00,,,0.00,Wunderground v.1.15,2013-06-01 00:27:00,
2013-05-31 20:32:00,75.4,70.2,30.02,SSW,207,2.0,5.0,84,0.00,,,0.00,Wunderground v.1.15,2013-06-01 00:32:00,
2013-05-31 20:38:00,75.2,70.0,30.02,SSE,151,3.0,7.0,84,0.00,,,0.00,Wunderground v.1.15,2013-06-01 00:38:00,
2013-05-31 20:44:00,75.1,70.3,30.02,South,169,3.0,5.0,85,0.00,,,0.00,Wunderground v.1.15,2013-06-01 00:44:00,
2013-05-31 20:50:00,74.9,70.1,30.03,SSE,167,2.0,5.0,85,0.00,,,0.00,Wunderground v.1.15,2013-06-01 00:50:00,
2013-05-31 20:56:00,74.8,70.3,30.03,SSE,157,3.0,7.0,86,0.00,,,0.00,Wunderground v.1.15,2013-06-01 00:56:00,
2013-05-31 21:01:00,74.6,70.1,30.03,SSE,168,2.0,5.0,86,0.00,,,0.00,Wunderground v.1.15,2013-06-01 01:01:00,
2013-05-31 21:07:00,74.5,70.0,30.03,South,182,2.0,5.0,86,0.00,,,0.00,Wunderground v.1.15,2013-06-01 01:07:00,
2013-05-31 21:12:00,74.4,69.9,30.03,SSW,193,1.0,5.0,86,0.00,,,0.00,Wunderground v.1.15,2013-06-01 01:12:00,
2013-05-31 21:18:00,74.2,70.1,30.03,WSW,241,2.0,5.0,87,0.00,,,0.00,Wunderground v.1.15,2013-06-01 01:18:00,
2013-05-31 21:24:00,74.1,70.0,30.04,South,182,2.0,5.0,87,0.00,,,0.00,Wunderground v.1.15,2013-06-01 01:24:00,
2013-05-31 21:29:00,74.0,69.9,30.04,South,184,2.0,5.0,87,0.00,,,0.00,Wunderground v.1.15,2013-06-01 01:29:00,
2013-05-31 21:35:00,74.0,69.9,30.04,SSE,152,2.0,5.0,87,0.00,,,0.00,Wunderground v.1.15,2013-06-01 01:35:00,
2013-05-31 21:41:00,73.9,69.8,30.04,SSE,153,1.0,5.0,87,0.00,,,0.00,Wunderground v.1.15,2013-06-01 01:41:00,
2013-05-31 21:47:00,73.9,69.8,30.04,SSE,153,1.0,5.0,87,0.00,,,0.00,Wunderground v.1.15,2013-06-01 01:47:00,
2013-05-31 21:53:00,73.8,69.7,30.04,SSE,153,1.0,5.0,87,0.00,,,0.00,Wunderground v.1.15,2013-06-01 01:53:00,
2013-05-31 21:59:00,73.8,70.0,30.04,SW,234,1.0,5.0,88,0.00,,,0.00,Wunderground v.1.15,2013-06-01 01:59:00,
2013-05-31 22:05:00,73.8,70.0,30.04,South,183,2.0,5.0,88,0.00,,,0.00,Wunderground v.1.15,2013-06-01 02:05:00,
2013-05-31 22:11:00,73.7,69.9,30.04,SSW,193,2.0,4.0,88,0.00,,,0.00,Wunderground v.1.15,2013-06-01 02:11:00,
2013-05-31 22:16:00,73.6,69.8,30.04,SSW,193,1.0,4.0,88,0.00,,,0.00,Wunderground v.1.15,2013-06-01 02:16:00,
2013-05-31 22:22:00,73.5,70.1,30.04,South,171,1.0,4.0,89,0.00,,,0.00,Wunderground v.1.15,2013-06-01 02:22:00,
2013-05-31 22:28:00,73.4,70.0,30.04,South,174,1.0,4.0,89,0.00,,,0.00,Wunderground v.1.15,2013-06-01 02:28:00,
2013-05-31 22:34:00,73.3,69.9,30.04,South,173,1.0,4.0,89,0.00,,,0.00,Wunderground v.1.15,2013-06-01 02:34:00,
2013-05-31 22:40:00,73.1,69.7,30.04,South,170,1.0,4.0,89,0.00,,,0.00,Wunderground v.1.15,2013-06-01 02:40:00,
2013-05-31 22:46:00,73.1,69.7,30.04,SSE,160,2.0,4.0,89,0.00,,,0.00,Wunderground v.1.15,2013-06-01 02:46:00,
2013-05-31 22:52:00,73.0,69.6,30.04,SSW,203,1.0,4.0,89,0.00,,,0.00,Wunderground v.1.15,2013-06-01 02:52:00,
2013-05-31 22:58:00,72.9,69.8,30.04,South,173,1.0,4.0,90,0.00,,,0.00,Wunderground v.1.15,2013-06-01 02:58:00,
2013-05-31 23:04:00,72.8,69.7,30.04,South,171,2.0,4.0,90,0.00,,,0.00,Wunderground v.1.15,2013-06-01 03:04:00,
2013-05-31 23:09:00,72.7,69.6,30.04,South,171,1.0,2.0,90,0.00,,,0.00,Wunderground v.1.15,2013-06-01 03:09:00,
2013-05-31 23:15:00,72.7,69.6,30.03,South,171,1.0,2.0,90,0.00,,,0.00,Wunderground v.1.15,2013-06-01 03:15:00,
2013-05-31 23:21:00,72.6,69.5,30.04,South,173,1.0,2.0,90,0.00,,,0.00,Wunderground v.1.15,2013-06-01 03:21:00,
2013-05-31 23:27:00,72.6,69.5,30.04,South,173,1.0,2.0,90,0.00,,,0.00,Wunderground v.1.15,2013-06-01 03:27:00,
2013-05-31 23:33:00,72.5,69.4,30.04,South,173,0.0,2.0,90,0.00,,,0.00,Wunderground v.1.15,2013-06-01 03:33:00,
2013-05-31 23:39:00,72.5,69.4,30.04,South,173,0.0,2.0,90,0.00,,,0.00,Wunderground v.1.15,2013-06-01 03:39:00,
2013-05-31 23:45:00,72.4,69.3,30.04,South,173,0.0,2.0,90,0.00,,,0.00,Wunderground v.1.15,2013-06-01 03:45:00,
2013-05-31 23:50:00,72.4,69.3,30.03,South,173,0.0,2.0,90,0.00,,,0.00,Wunderground v.1.15,2013-06-01 03:50:00,
2013-05-31 23:56:00,72.3,69.2,30.03,South,173,0.0,3.0,90,0.00,,,0.00,Wunderground v.1.15,2013-06-01 03:56:00,